This is the latest recevied weather packets stored in our database for station/object KC1TWD. If no packets are shown the sender has not sent any weather packets the latest 10 day(s).
| Time | Temp. | Humidity | Pressure | Rain* | Wind** | Luminosity | Snow |
|---|---|---|---|---|---|---|---|
| 1777846208 | 10° C | 46% | 1007.4 hPa | 0 mm | - | - | - |
| 1777845903 | 10° C | 43% | 1007.3 hPa | 0 mm | - | - | - |
| 1777845600 | 10° C | 43% | 1007.5 hPa | 0 mm | - | - | - |
| 1777845297 | 10° C | 43% | 1007.3 hPa | 0 mm | - | - | - |
| 1777844994 | 10° C | 43% | 1007.3 hPa | 0 mm | - | - | - |
| 1777844693 | 10° C | 44% | 1007.3 hPa | 0 mm | - | - | - |
| 1777844389 | 10° C | 45% | 1007.2 hPa | 0 mm | - | - | - |
| 1777844088 | 10° C | 42% | 1007.3 hPa | 0 mm | - | - | - |
| 1777843783 | 10° C | 43% | 1007.1 hPa | 0 mm | - | - | - |
| 1777843481 | 10.56° C | 43% | 1007.2 hPa | 0 mm | - | - | - |
| 1777843178 | 10.56° C | 44% | 1007 hPa | 0 mm | - | - | - |
| 1777842875 | 10.56° C | 41% | 1007 hPa | 0 mm | - | - | - |
| 1777842571 | 10.56° C | 41% | 1006.9 hPa | 0 mm | - | - | - |
| 1777842268 | 10.56° C | 42% | 1006.9 hPa | 0 mm | - | - | - |
| 1777841962 | 10.56° C | 41% | 1006.7 hPa | 0 mm | - | - | - |
| 1777841660 | 10.56° C | 42% | 1006.8 hPa | 0 mm | - | - | - |
| 1777841356 | 10.56° C | 40% | 1006.9 hPa | 0 mm | - | - | - |
| 1777841054 | 10.56° C | 41% | 1006.7 hPa | 0 mm | - | - | - |
| 1777840750 | 10.56° C | 42% | 1006.6 hPa | 0 mm | - | - | - |
| 1777840448 | 10.56° C | 43% | 1006.6 hPa | 0 mm | - | - | - |
| 1777840144 | 10.56° C | 42% | 1006.3 hPa | 0 mm | - | - | - |
| 1777839843 | 10.56° C | 42% | 1006.6 hPa | 0 mm | - | - | - |
| 1777839541 | 10.56° C | 40% | 1006.6 hPa | 0 mm | - | - | - |
| 1777839237 | 11.11° C | 42% | 1006.6 hPa | 0 mm | - | - | - |
| 1777838935 | 11.11° C | 41% | 1006.5 hPa | 0 mm | - | - | - |
* Rain latest hour (hover to see other rain measurements)
** Current wind speed in m/s (hover to see current wind gust speed)